Content
SEND FEEDBACK

Daily
Averages
Monthly
Summary
Canada

MONTREAL, QUEBEC


Home > North America > Canada > Quebec
Elevation: 118 feet     Latitude: 45 28N     Longitude: 073 45W

WEATHER
 
SELECT A DAY
Number of Records: 198,461;   Date Range: 1/1/95 - 8/20/14
 
SHARE

PRINT THIS DATA

[ ← Previous Day ]
WEATHER ALMANAC - FEBRUARY 4, 2013
[ Next Day → ]
[ °C ]   °F
Weather ElementAverageHighLow
Temperature11.8 °F15.8 °F (11:00 am)5 °F (11:00 pm)
Dewpoint2.5 °F10.4 °F (1:00 am)-9.4 °F (11:00 pm)
Humidity69.6 %92 % (6:00 am)41 % (7:00 pm)
Wind Speed13.3 mph27.6 mph (1:00 pm)
Wind Gust34.5 mph (2:00 pm)
Weather ElementAverage
Visibility9.8 mi
Wind DirectionW (267.6 °)

Weather ElementTotal
Precipitation---
Heating Degree Days54.6 (Base 65)
Averaged from 33 records on February 4, 2013
WEATHER CONDITIONS BREAKOUT
WIND DIRECTION BREAKOUT
WEATHER BY HOUR - FEBRUARY 4, 2013
[ °C ]   °F
Local TimeTemperatureDewpointHumidityBarometerVisibilityWind DirectionWind SpeedGust SpeedPrecipitationEventsConditions
1:00 AM14.0 °F10.0 °F78 %29.78 in4.0 miNNW (330°)8.1 mphSnowLight Snow
1:00 AM14.0 °F10.4 °F86 %29.78 in4.0 miNNW (330°)8.1 mphSnowLight Snow
1:33 AM14.0 °F0.0 °F2.0 miNNW (340°)8.1 mphSnowLight Snow
2:00 AM14.0 °F10.4 °F86 %29.78 in3.0 miNNW (330°)6.9 mphSnowLight Snow
2:29 AM14.0 °F0.0 °F2.0 miNW (320°)6.9 mphSnowLight Snow
3:00 AM14.0 °F10.4 °F86 %29.78 in4.0 miNW (320°)5.8 mphSnowLight Snow
4:00 AM12.2 °F8.6 °F85 %29.78 in5.0 miWest (260°)4.6 mphSnowLight Snow
6:00 AM8.6 °F6.8 °F92 %29.80 in10.0 miSW (220°)6.9 mphPartly Cloudy
7:00 AM8.6 °F6.8 °F92 %29.81 in6.0 miSW (230°)10.4 mphPartly Cloudy
7:00 AM9.0 °F6.0 °F81 %29.81 in6.0 miSW (230°)10.4 mphMist
8:00 AM10.4 °F6.8 °F85 %29.81 in5.0 miWSW (240°)4.6 mphMostly Cloudy
8:48 AM12.2 °F0.0 °F1.8 miSW (230°)9.2 mphSnowLight Snow
9:00 AM12.2 °F8.6 °F85 %29.79 in1.2 miSW (230°)6.9 mphSnowLight Snow
9:20 AM12.2 °F0.0 °F1.8 miSW (230°)10.4 mphSnowLight Snow
9:35 AM14.0 °F0.0 °F2.0 miWSW (240°)11.5 mphSnowLight Snow
9:49 AM14.0 °F0.0 °F3.0 miWSW (240°)13.8 mphSnowLight Snow
10:00 AM14.0 °F10.4 °F86 %29.77 in3.0 miWSW (250°)15.0 mphSnowLight Snow
10:28 AM14.0 °F0.0 °F8.0 miWSW (240°)18.4 mphMostly Cloudy
11:00 AM15.8 °F10.4 °F79 %29.77 in10.0 miWest (260°)13.8 mph24.2 mphMostly Cloudy
12:00 PM15.8 °F8.6 °F73 %29.76 in15.0 miWest (260°)24.2 mph29.9 mphMostly Cloudy
1:00 PM15.0 °F4.0 °F49 %29.76 in15.0 miWSW (250°)24.2 mphPartly Cloudy
1:00 PM15.8 °F5.0 °F62 %29.76 in15.0 miWSW (240°)27.6 mphMostly Cloudy
2:00 PM14.0 °F3.2 °F62 %29.78 in15.0 miWest (260°)25.3 mph34.5 mphScattered Clouds
3:00 PM14.0 °F1.4 °F57 %29.81 in15.0 miWest (270°)25.3 mph32.2 mphPartly Cloudy
4:00 PM12.2 °F-0.4 °F57 %29.84 in30.0 miWest (270°)21.9 mph29.9 mphPartly Cloudy
5:00 PM10.4 °F-2.2 °F57 %29.86 in30.0 miWSW (250°)23.0 mphPartly Cloudy
6:00 PM8.6 °F-4.0 °F57 %29.88 in15.0 miWSW (250°)15.0 mph21.9 mphPartly Cloudy
7:00 PM8.0 °F-5.0 °F41 %29.90 in15.0 miWest (260°)12.7 mph
7:00 PM8.6 °F-4.0 °F57 %29.90 in15.0 miWest (260°)12.7 mphClear
8:00 PM6.8 °F-5.8 °F56 %29.92 in15.0 miWest (270°)12.7 mphClear
9:00 PM6.8 °F-5.8 °F56 %29.93 in15.0 miWNW (290°)9.2 mphClear
10:00 PM6.8 °F-7.6 °F52 %29.93 in15.0 miNW (310°)12.7 mphClear
11:00 PM5.0 °F-9.4 °F52 %29.94 in15.0 miNW (320°)11.5 mph18.4 mphClear
Hourly data recorded from CYUL, located miles away from Montreal, Quebec







STORIES FROM OUR PARTNERS